Location: Vancouver
(49.2500°N, 123.1330°W)
Time: 10:12:30
(UTC-07:00)

Cosmos 2333 Rocket - Visible Passes

Search period start: 26 April 2015 00:00
Search period end: 06 May 2015 00:00
Orbit: 838 x 864 km, 70.8° (Epoch: 26 April)

Date Brightness Start Highest point End Pass type
(mag) Time Alt. Az. Time Alt. Az. Time Alt. Az.
26 Apr 4.1 05:24:25 10° SSE 05:29:17 30° ESE 05:34:16 10° NE visible
27 Apr 4.1 05:12:11 10° SSE 05:17:02 30° ESE 05:22:02 10° NE visible
28 Apr 4.0 04:59:55 10° SSE 05:04:47 30° ESE 05:09:47 10° NE visible
29 Apr 4.0 04:47:40 10° SSE 04:52:32 30° ESE 04:57:32 10° NE visible
30 Apr 3.9 04:35:25 10° SSE 04:40:18 30° ESE 04:45:17 10° NE visible
01 May 3.9 04:23:10 10° SSE 04:28:03 30° ESE 04:33:02 10° NE visible
02 May 3.8 04:10:55 10° SSE 04:15:48 30° ESE 04:20:48 10° NE visible
03 May 3.8 03:58:41 10° SSE 04:03:33 30° ESE 04:08:33 10° NE visible
04 May 3.7 03:46:26 10° SSE 03:51:18 30° ESE 03:56:18 10° NE visible
05 May 3.7 03:34:14 10° SSE 03:39:03 30° ESE 03:44:03 10° NE visible
